DECAYED

IRIDIUM 33 DEB, 33867 (Decayed)

Orbit data source: Space-Track

IRIDIUM 33 DEB, 33867 was space debris in LEO originally from a launch on Sun, 14 Sep 1997 UTC launched from the Tyuratam Missile And Space Complex (TTMTR). The debris from Iridium 33, an American commercial communications satellite, has been tracked extensively since its accidental collision with the defunct Russian satellite Cosmos 2251 in 2009. This event, occurring at high speed in low Earth orbit (LEO), generated thousands of pieces of space debris, significantly increasing the risk of further collisions. The Iridium 33 debris cloud has impacted space traffic management and orbital debris mitigation strategies, making it a subject of ongoing study in space situational awareness.

Not visible in the next 10 days
Identifier
33867, 1997-051AL
Orbit
Decayed
Country
Flag of USUS
Related business
Manufacturer
Unknown
Mission
Decayed spacecraft
Bus & Motor
Unknown
Mass
Unknown
Launch date (UTC)
1997-09-14 (29 years ago)
Launch vehicle
Unknown
Launch site
Tyuratam Missile And Space Complex (TTMTR)
Object type
Payload
Rocket body
Debris
Shape & HBR
Unknown shape, 0.1 m
Radar Cross Section
Medium (>0.1 m² and <1 m²)

Expand to show TLE details & history
Last TLE update: 5 months ago

TLE from 5 months ago
0 IRIDIUM 33 DEB
1 33867U 97051AL  25358.51585250  .16234982 -13580-5  54325-2 0  9992
2 33867  86.3666 343.8502 0009090 136.2673 223.9349 16.25725405896973
Epoch: 2025-12-24T12:22Z
TLE epoch observation values (Epoch: 2025-12-24T12:22:49.655Z)
Latitude
0.00003°
Longitude
64.85917°
Altitude
211.682 km
Speed
7.777 km/s
True Right ascension
22h 55m 24s
True Declination
0° 00' 00"
Sunlit
Object was in daylight at epoch
Visualization orbit readout
Latitude
Unknown
Longitude
Unknown
Altitude
Unknown
Speed
Unknown
Apparent Right ascension
Unknown
Apparent Declination
Unknown
Sunlit
N/A
Visualization observer readout
Local Sidereal Time
06:52:56
Azimuth
Unknown
Elevation
Unknown
Doppler factor
Unknown
Orbital elements
Apogee altitude
206.733 km
Perigee altitude
194.772 km
Semi-major axis
6,578.89 km
Eccentricity
0.00091
Inclination
86.3666°
RAAN
343.8502°
Arg. of periapsis
136.2673°
True anomaly
223.86269°
Mean anomaly
223.9349°
Eccentric anomaly
223.89879°
Mean motion
4.06738 °/min
Orbital period
88.51 mins
BSTAR
0.0054325
Loading maneuver chart data...
Computing Atmospheric mass density...

Documentation

Showing up to 5 results
|